Location: Newark
(7.0858°N, 171.3717°E)
Time: 02:48:42
(UTC+00:00)

Transit 4A - Pass Details

Date: 01 December 2020
Orbit: 864 x 980 km, 66.8° (Epoch: 20 January)

Event Time Altitude Azimuth Distance (km) Brightness Sun altitude
Rises 18:14:31 0° 193° (SSW) 3,537 11.1 -4.8°
Reaches altitude 10° 18:17:02 10° 189° (S) 2,612 10.4 -4.2°
Maximum altitude 18:23:02 63° 109° (ESE) 1,040 8.6 -2.8°
Drops below altitude 10° 18:29:14 10° 29° (NNE) 2,685 10.4 -1.4°
Sets 18:31:50 0° 26° (NNE) 3,643 11.1 -0.8°
